Location: Jastrz?bniki
(50.3667°N, 20.3833°E)
Time: 12:31:16
(UTC+00:00)

Cosmos 1733 Rocket - Pass Details

Date: 05 August 2024
Orbit: 598 x 624 km, 82.5° (Epoch: 09 September)

Event Time Altitude Azimuth Distance (km) Brightness Sun altitude
Rises 02:20:59 0° 171° (S) 2,896 6.2 -7.7°
Reaches altitude 10° 02:23:17 10° 164° (SSE) 1,993 5.4 -7.4°
Maximum altitude 02:27:28 44° 93° (E) 867 4.3 -6.9°
Drops below altitude 10° 02:31:41 10° 22° (NNE) 1,999 6.7 -6.4°
Sets 02:33:59 0° 16° (NNE) 2,906 7.4 -6.1°
